Find Starlink 34125

NORAD ID: 63901 Int'l Des: 2025-095 Owner: SPXS Country: US Constellation: starlink operational
LEOCIRCULAR

当前视图

正在加载3D地球...

关于 Starlink 34125

正在加载描述...

即将过境

Passes for default location (London). Set your location on the main map for personalized predictions.

高度历史

Loading altitude history...

两行轨道根数

1 63901U 25095M 26151.18097189 .00040731 00000-0 14799-2 0 9995
2 63901 43.0000 70.3658 0001378 283.8982 76.1716 15.27614810 60397
Epoch: May 31, 2026 • Age: 17 hours

当前状态

高度 483.7 km
速度 7.63 km/s
星下点 -9.38°S, 156.39°W
发射日期 May 10, 2025
运行时间 1 years
类型 internet

技术详情

分类 Payload
质量 575.00 kg
干质量 530.00 kg
总质量 575.00 kg
长度 0.30 m
直径 4.10 m
跨度 29.00 m
形状 Box + pan
制造商 SPXS
平台类型 Starlink V2MO
阶段状态 In Orbit
所有者/国家 SPXS/US

Most Searched